Hourly Data Report for October 06, 2014

All times are specified in Local Standard Time (LST). Add 1 hour to adjust for Daylight Saving Time where and when it is observed.

CHARLOTTETOWN A
PRINCE EDWARD ISLAND

46°17'21.000" N
63°07'09.000" W
48.50 m
8300301
71706
YYG

Download Data

Hourly Data (October 2014)
Hourly Data Report for October 6, 2014
Temp Definition
°C
Dew Point Temp Definition
°C
Rel Hum Definition
%
Wind Dir Definition
10's deg

Wind Spd Definition
km/h
Visibility Definition
km
Stn Press Definition
kPa
Hmdx Definition


Wind Chill Definition


Weather Definition


TIME
00:00 Legend Double Dagger 13.9 13.4 97 24 13 12.9 100.28     Drizzle
01:00 Legend Double Dagger 12.9 12.1 95 24 10 19.3 100.38     LegendNANA
02:00 Legend Double Dagger 11.5 10.7 95 24 8 19.3 100.42     Mainly Clear
03:00 Legend Double Dagger 11.7 10.8 94 26 11 19.3 100.48     LegendNANA
04:00 Legend Double Dagger 11.7 10.6 93 25 10 19.3 100.56     LegendNANA
05:00 Legend Double Dagger 12.2 11.3 94 27 13 24.1 100.66     Mostly Cloudy
06:00 Legend Double Dagger 11.2 9.6 90 27 10 24.1 100.77     LegendNANA
07:00 Legend Double Dagger 10.2 9.1 93 26 10 24.1 100.89     LegendNANA
08:00 Legend Double Dagger 11.5 9.3 86 26 12 24.1 100.99     Mainly Clear
09:00 Legend Double Dagger 13.2 9.5 78 29 10 24.1 101.09     LegendNANA
10:00 Legend Double Dagger 14.7 8.7 67 29 10 24.1 101.17     LegendNANA
11:00 Legend Double Dagger 14.6 7.0 60 30 16 24.1 101.21     Mainly Clear
12:00 Legend Double Dagger 15.7 6.8 55 24 18 24.1 101.27     LegendNANA
13:00 Legend Double Dagger 15.8 9.3 65 23 13 24.1 101.30     LegendNANA
14:00 Legend Double Dagger 15.6 5.6 51 25 17 24.1 101.32     Mainly Clear
15:00 Legend Double Dagger 16.1 5.8 50 26 11 24.1 101.37     LegendNANA
16:00 Legend Double Dagger 15.7 5.7 51 26 13 24.1 101.44     LegendNANA
17:00 Legend Double Dagger 14.8 4.8 51 26 7 24.1 101.52     Clear
18:00 Legend Double Dagger 11.6 5.7 67 23 5 24.1 101.59     LegendNANA
19:00 Legend Double Dagger 12.6 6.5 66 20 7 24.1 101.64     LegendNANA
20:00 Legend Double Dagger 7.4 6.2 92 36 1 24.1 101.70     Clear
21:00 Legend Double Dagger 6.1 5.7 97 36 3 24.1 101.78     LegendNANA
22:00 Legend Double Dagger 9.7 7.0 83 24 6 24.1 101.81     LegendNANA
23:00 Legend Double Dagger 10.1 7.7 85 23 8 24.1 101.85     Clear

Notes on Data Quality.

Legend

  • E = Estimated
  • M = Missing
  • NA = Not Available
  • ‡ = Partner data that is not subject to review by the National Climate Archives
Date modified: